Location: Cucq
(50.4773°N, 1.6202°E)
Time: 03:19:57
(UTC+00:00)

Timation 2 Rocket - Pass Details

Date: 07 August 2020
Orbit: 907 x 1074 km, 70.0° (Epoch: 19 September)

Event Time Altitude Azimuth Distance (km) Brightness Sun altitude
Exits shadow 01:14:34 40° 188° (S) 1,360 4.3 -21.2°
Maximum altitude 01:16:50 71° 117° (ESE) 989 3.9 -21.1°
Drops below altitude 10° 01:22:51 10° 35° (NE) 2,619 7.4 -20.7°
Sets 01:25:20 0° 33° (NNE) 3,555 8.4 -20.6°
